When you browse on this site, cookies collect data to enhance your experience and personalize the content and advertising you see.
Visit our Privacy Policy to learn more. By continuing to use the site, you agree to this use of cookies and data.
  • In Hungary
  • List of Countries
  • For 7 days
  • Water Temperature
  • Satellite Maps
  • Weather Map
  • News
  • Weather Widgets
  • user-avatar
    Login

    Hourly Weather Novyy Svet

    Today, 20 July, Saturday

    Time Temperature Precipitation Wind Pressure Humidity
    00:00 +21°C° 0 mm 1 mps 748 mmHg 62%
    01:00 +21°C° 0 mm 1 mps 748 mmHg 62%
    02:00 +20°C° 0 mm 1 mps 748 mmHg 60%
    03:00 +20°C° 0 mm 1 mps 748 mmHg 60%
    04:00 +19°C° 0 mm 2 mps 748 mmHg 61%
    05:00 +19°C° 0 mm 2 mps 749 mmHg 61%
    06:00 +23°C° 0 mm 2 mps 749 mmHg 54%
    07:00 +25°C° 0 mm 2 mps 749 mmHg 47%
    08:00 +27°C° 0 mm 1 mps 749 mmHg 40%
    09:00 +28°C° 0 mm 2 mps 749 mmHg 38%
    10:00 +29°C° 0 mm 2 mps 749 mmHg 36%
    11:00 +30°C° 0 mm 2 mps 749 mmHg 34%
    12:00 +30°C° 0 mm 2 mps 749 mmHg 34%
    13:00 +30°C° 0 mm 3 mps 749 mmHg 34%
    14:00 +30°C° 0 mm 3 mps 749 mmHg 34%
    15:00 +29°C° 0 mm 3 mps 749 mmHg 36%
    16:00 +29°C° 0 mm 2 mps 749 mmHg 38%
    17:00 +28°C° 0 mm 2 mps 749 mmHg 40%
    18:00 +26°C° 0 mm 2 mps 749 mmHg 44%
    19:00 +24°C° 0 mm 2 mps 749 mmHg 48%
    20:00 +23°C° 0 mm 2 mps 749 mmHg 52%
    21:00 +21°C° 0 mm 2 mps 748 mmHg 53%
    22:00 +21°C° 0 mm 2 mps 748 mmHg 53%
    23:00 +21°C° 0 mm 2 mps 748 mmHg 54%

    Tomorrow, 21 July, Sunday

    Time Temperature Precipitation Wind Pressure Humidity
    00:00 +20°C° 0 mm 3 mps 748 mmHg 55%
    01:00 +20°C° 0 mm 3 mps 748 mmHg 56%
    02:00 +20°C° 0 mm 3 mps 748 mmHg 58%
    03:00 +20°C° 0 mm 3 mps 748 mmHg 59%
    04:00 +20°C° 0 mm 3 mps 748 mmHg 59%
    05:00 +20°C° 0 mm 4 mps 747 mmHg 60%
    06:00 +22°C° 0 mm 4 mps 748 mmHg 57%
    07:00 +25°C° 0 mm 4 mps 748 mmHg 53%
    08:00 +27°C° 0 mm 4 mps 748 mmHg 49%
    09:00 +28°C° 0 mm 4 mps 748 mmHg 45%
    10:00 +29°C° 0 mm 4 mps 748 mmHg 40%
    11:00 +30°C° 0 mm 5 mps 748 mmHg 35%
    12:00 +30°C° 0 mm 4 mps 748 mmHg 35%
    13:00 +30°C° 0 mm 4 mps 747 mmHg 36%
    14:00 +30°C° 0 mm 4 mps 747 mmHg 36%
    15:00 +30°C° 0 mm 4 mps 747 mmHg 38%
    16:00 +29°C° 0 mm 4 mps 747 mmHg 39%
    17:00 +29°C° 0 mm 3 mps 748 mmHg 41%
    18:00 +27°C° 0 mm 3 mps 748 mmHg 48%
    19:00 +25°C° 0 mm 2 mps 748 mmHg 55%
    20:00 +23°C° 0 mm 1 mps 748 mmHg 62%
    21:00 +23°C° 0 mm 1 mps 748 mmHg 62%
    22:00 +22°C° 0 mm 1 mps 748 mmHg 62%
    23:00 +22°C° 0 mm 1 mps 748 mmHg 62%

    Day after tomorrow, 22 July, Monday

    Time Temperature Precipitation Wind Pressure Humidity
    00:00 +21°C° 0 mm 2 mps 748 mmHg 64%
    01:00 +20°C° 0 mm 2 mps 748 mmHg 66%
    02:00 +20°C° 0 mm 2 mps 748 mmHg 68%
    03:00 +20°C° 0 mm 2 mps 748 mmHg 69%
    04:00 +20°C° 0 mm 2 mps 748 mmHg 69%
    05:00 +20°C° 0 mm 2 mps 748 mmHg 70%
    06:00 +23°C° 0 mm 2 mps 748 mmHg 63%
    07:00 +25°C° 0 mm 2 mps 748 mmHg 57%
    08:00 +27°C° 0 mm 3 mps 748 mmHg 50%
    09:00 +28°C° 0 mm 3 mps 748 mmHg 46%
    10:00 +30°C° 0 mm 3 mps 748 mmHg 42%
    11:00 +31°C° 0 mm 3 mps 748 mmHg 38%
    12:00 +31°C° 0 mm 2 mps 748 mmHg 38%
    13:00 +31°C° 0 mm 2 mps 748 mmHg 37%
    14:00 +31°C° 0 mm 2 mps 748 mmHg 37%
    15:00 +31°C° 0 mm 2 mps 747 mmHg 39%
    16:00 +30°C° 0 mm 2 mps 747 mmHg 41%
    17:00 +29°C° 0 mm 2 mps 747 mmHg 43%
    18:00 +27°C° 0 mm 2 mps 747 mmHg 51%
    19:00 +26°C° 0 mm 1 mps 747 mmHg 58%
    20:00 +24°C° 0 mm 1 mps 747 mmHg 66%
    21:00 +23°C° 0 mm 1 mps 747 mmHg 65%
    22:00 +23°C° 0 mm 1 mps 746 mmHg 64%
    23:00 +23°C° 0 mm 1 mps 746 mmHg 63%

    23 July, Tuesday

    Time Temperature Precipitation Wind Pressure Humidity
    00:00 +23°C° 0 mm 1 mps 746 mmHg 62%
    01:00 +22°C° 0 mm 1 mps 746 mmHg 62%
    02:00 +22°C° 0 mm 1 mps 746 mmHg 61%
    03:00 +22°C° 0 mm 1 mps 745 mmHg 62%
    04:00 +21°C° 0 mm 2 mps 745 mmHg 63%
    05:00 +21°C° 0 mm 2 mps 745 mmHg 64%
    06:00 +24°C° 0 mm 2 mps 745 mmHg 59%
    07:00 +26°C° 0 mm 1 mps 745 mmHg 54%
    08:00 +28°C° 0 mm 1 mps 745 mmHg 48%
    09:00 +29°C° 0 mm 1 mps 745 mmHg 45%
    10:00 +30°C° 0 mm 1 mps 745 mmHg 42%
    11:00 +31°C° 0 mm 1 mps 745 mmHg 39%
    12:00 +31°C° 0 mm 2 mps 745 mmHg 42%
    13:00 +30°C° 0 mm 2 mps 744 mmHg 44%
    14:00 +30°C° 0 mm 2 mps 744 mmHg 46%
    15:00 +29°C° 0.1 mm 2 mps 744 mmHg 51%
    16:00 +28°C° 0.1 mm 2 mps 744 mmHg 56%
    17:00 +27°C° 0.1 mm 2 mps 744 mmHg 61%
    18:00 +25°C° 0.4 mm 2 mps 744 mmHg 70%
    19:00 +24°C° 0.4 mm 3 mps 744 mmHg 79%
    20:00 +21°C° 0.4 mm 3 mps 744 mmHg 88%
    21:00 +21°C° 0.8 mm 3 mps 744 mmHg 88%
    22:00 +21°C° 0.8 mm 3 mps 744 mmHg 89%
    23:00 +21°C° 0.8 mm 2 mps 744 mmHg 89%

    24 July, Wednesday

    Time Temperature Precipitation Wind Pressure Humidity
    00:00 +21°C° 0.9 mm 3 mps 743 mmHg 89%
    01:00 +21°C° 0.9 mm 3 mps 743 mmHg 90%
    02:00 +20°C° 0.9 mm 3 mps 743 mmHg 91%
    03:00 +20°C° 0.2 mm 3 mps 743 mmHg 89%
    04:00 +20°C° 0.2 mm 3 mps 743 mmHg 88%
    05:00 +20°C° 0.2 mm 2 mps 743 mmHg 86%
    06:00 +21°C° 0 mm 2 mps 743 mmHg 83%
    07:00 +23°C° 0 mm 2 mps 743 mmHg 80%
    08:00 +24°C° 0 mm 2 mps 743 mmHg 76%
    09:00 +25°C° 0.4 mm 2 mps 743 mmHg 72%
    10:00 +26°C° 0.4 mm 2 mps 743 mmHg 67%
    11:00 +27°C° 0.4 mm 2 mps 743 mmHg 62%
    12:00 +26°C° 0.6 mm 2 mps 743 mmHg 64%
    13:00 +26°C° 0.6 mm 1 mps 743 mmHg 67%
    14:00 +25°C° 0.6 mm 1 mps 743 mmHg 69%
    15:00 +25°C° 0.3 mm 1 mps 743 mmHg 72%
    16:00 +24°C° 0.3 mm 2 mps 743 mmHg 74%
    17:00 +23°C° 0.3 mm 2 mps 743 mmHg 77%
    18:00 +23°C° 0 mm 2 mps 743 mmHg 76%
    19:00 +21°C° 0 mm 2 mps 743 mmHg 76%
    20:00 +21°C° 0 mm 2 mps 743 mmHg 76%
    21:00 +21°C° 0.1 mm 2 mps 743 mmHg 76%
    22:00 +20°C° 0.1 mm 2 mps 743 mmHg 77%
    23:00 +21°C° 0.1 mm 1 mps 743 mmHg 77%

    25 July, Thursday

    Time Temperature Precipitation Wind Pressure Humidity
    00:00 +21°C° 0.1 mm 1 mps 743 mmHg 78%
    01:00 +19°C° 0.1 mm 2 mps 742 mmHg 79%
    02:00 +19°C° 0.1 mm 2 mps 742 mmHg 80%
    03:00 +19°C° 0 mm 2 mps 742 mmHg 80%
    04:00 +20°C° 0 mm 1 mps 742 mmHg 80%
    05:00 +21°C° 0 mm 1 mps 742 mmHg 80%
    06:00 +21°C° 0 mm 2 mps 742 mmHg 75%
    07:00 +24°C° 0 mm 2 mps 742 mmHg 70%
    08:00 +25°C° 0 mm 2 mps 743 mmHg 65%
    09:00 +26°C° 0.3 mm 2 mps 743 mmHg 64%
    10:00 +26°C° 0.3 mm 3 mps 743 mmHg 63%
    11:00 +26°C° 0.3 mm 3 mps 743 mmHg 63%
    12:00 +25°C° 0.6 mm 3 mps 743 mmHg 64%
    13:00 +25°C° 0.6 mm 2 mps 743 mmHg 66%
    14:00 +24°C° 0.6 mm 2 mps 743 mmHg 67%
    15:00 +24°C° 0.1 mm 2 mps 743 mmHg 68%
    16:00 +23°C° 0.1 mm 1 mps 743 mmHg 68%
    17:00 +23°C° 0.1 mm 1 mps 743 mmHg 69%
    18:00 +23°C° 0 mm 1 mps 743 mmHg 69%
    19:00 +21°C° 0 mm 2 mps 743 mmHg 69%
    20:00 +21°C° 0 mm 2 mps 743 mmHg 69%
    21:00 +21°C° 0.1 mm 2 mps 743 mmHg 72%
    22:00 +20°C° 0.1 mm 3 mps 743 mmHg 75%
    23:00 +20°C° 0.1 mm 3 mps 742 mmHg 79%
    Show more